Location: Newark
(51.0500°N, 12.4500°E)
Time: 13:09:36
(UTC+00:00)

Tiros 1 - Pass Details

Date: 18 February 2020
Orbit: 630 x 664 km, 48.4° (Epoch: 08 April)

Event Time Altitude Azimuth Distance (km) Brightness Sun altitude
Rises 02:39:56 0° 211° (SSW) 2,913 - -34.3°
Reaches altitude 10° 02:42:40 10° 196° (SSW) 2,005 - -33.9°
Maximum altitude 02:46:12 22° 146° (SE) 1,379 - -33.4°
Exits shadow 02:48:07 17° 113° (ESE) 1,590 9.5 -33.2°
Drops below altitude 10° 02:49:44 10° 96° (E) 2,008 10.3 -32.9°
Sets 02:52:27 0° 81° (E) 2,919 11.5 -32.5°
